Location: Ellingshausen
(50.5460°N, 10.4723°E)
Time: 00:24:24
(UTC+00:00)

Cosmos 921 Rocket - Pass Details

Date: 18 January 2026
Orbit: 564 x 620 km, 75.8° (Epoch: 17 February)

Event Time Altitude Azimuth Distance (km) Brightness Sun altitude
Exits shadow 05:21:50 32° 266° (W) 1,018 3.6 -16.7°
Maximum altitude 05:22:52 37° 298° (WNW) 915 3.4 -16.6°
Drops below altitude 10° 05:26:49 10° 7° (N) 1,898 5.5 -16.0°
Sets 05:29:09 0° 16° (NNE) 2,793 6.5 -15.6°
